{"data":{"norad_id":62014,"epoch":"2026-05-24T21:45:42.767136Z","epoch_age_seconds":86204,"freshness":"FRESH","line1":"1 62014U 24213G   26144.90674499  .00141643  00000+0  11533-2 0  9993","line2":"2 62014  53.1573  25.7090 0000992  38.0035 322.1053 15.69727158 86888","mean_motion":15.69727158,"eccentricity":9.92e-5,"inclination_deg":53.1573,"raan_deg":25.709,"arg_perigee_deg":38.0035,"mean_anomaly_deg":322.1053,"bstar":0.0011533,"rev_number":8688,"period_min":91.735687483086,"perigee_km":359.00926002535,"apogee_km":360.34604245216,"semimajor_km":6737.8146512388,"source":"CELESTRAK","updated_at":"2026-05-25T13:38:19.519613Z"}}